Location: ?????????
(38.4921°N, 22.9787°E)
Time: 03:40:28
(UTC+00:00)

CZ-4 R/B - Pass Details

Date: 08 December 2025
Orbit: 675 x 744 km, 98.7° (Epoch: 21 January)

Event Time Altitude Azimuth Distance (km) Brightness Sun altitude
Rises 03:31:53 0° 13° (NNE) 3,050 7.1 -23.0°
Reaches altitude 10° 03:34:08 10° 14° (NNE) 2,125 6.3 -22.6°
Maximum altitude 03:38:46 85° 101° (E) 684 3.7 -21.7°
Drops below altitude 10° 03:43:22 10° 193° (SSW) 2,101 6.3 -20.8°
Sets 03:45:35 0° 193° (SSW) 3,013 7.1 -20.4°
